Home   Weather   Baku   Past weeks
Flag for Azerbaijan

Past Weather in Baku, Azerbaijan — Yesterday and Last 2 Weeks

Now
91 °F

Sunny.


Feels Like: 93 °F
Forecast: 87 / 74 °F
Wind: 10 mph from Northeast

Location: Baku / Bine Airport

Current Time: Jul 18, 2019 at 3:21:51 pm

Latest Report: Jul 18, 2019 at 2:30 pm


Visibility: 10 mi

Pressure: 29.65 "Hg

Humidity: 41%

Dew Point: 64 °F

Location of BakuLocation

Past Weather in Baku — Graph

°F

Baku Temperature Yesterday

Maximum temperature yesterday: 86 °F (at 11:00 am)
Minimum temperature yesterday: 75 °F (at 12:00 am)
Average temperature yesterday: 80 °F

High & Low Weather Summary for the Past Weeks

 TemperatureHumidityPressure
High95 °F (Jul 4, 7:00 pm)100% (Jul 11, 5:00 am)29.89 "Hg (Jul 11, 5:00 am)
Low66 °F (Jul 5, 4:30 am)14% (Jul 4, 7:00 pm)29.45 "Hg (Jul 12, 3:30 pm)
Average79 °F66%29.71 "Hg
* Reported Jul 3 2:00 pm — Jul 18 2:00 pm, Baku. Weather by CustomWeather, © 2019

Note: Actual official high and low records may vary slightly from our data, if they occured in-between our weather recording intervals... More about our weather records

Advertising

Baku Weather History for the Previous 24 Hours

Scroll right to see more
 ConditionsComfort  
Time TempWeatherWind HumidityBarometerVisibility
2:00 pm
Thu, Jul 18
93 °FSunny.8 mph41%29.65 "Hg10 mi
1:30 pm91 °FSunny.5 mph36%29.65 "Hg10 mi
1:00 pm91 °FSunny.6 mph36%29.68 "Hg10 mi
12:30 pm90 °FSunny.6 mph38%29.68 "Hg10 mi
12:00 pm90 °FSunny.8 mph38%29.68 "Hg10 mi
11:30 am88 °FSunny.12 mph40%29.68 "Hg10 mi
11:00 am88 °FSunny.12 mph43%29.68 "Hg10 mi
10:30 am88 °FSunny.13 mph43%29.68 "Hg10 mi
10:00 am88 °FSunny.14 mph43%29.68 "Hg10 mi
9:30 am86 °FSunny.15 mph46%29.68 "Hg10 mi
9:00 am86 °FSunny.14 mph46%29.68 "Hg10 mi
8:30 am84 °FSunny.15 mph51%29.68 "Hg10 mi
8:00 am82 °FSunny.14 mph58%29.68 "Hg10 mi
7:30 am81 °FSunny.14 mph62%29.68 "Hg10 mi
7:00 am79 °FSunny.12 mph65%29.68 "Hg10 mi
6:00 am75 °FSunny.9 mph78%29.68 "Hg10 mi
5:30 am75 °FSunny.9 mph74%29.68 "Hg10 mi
5:00 am75 °FClear.8 mph74%29.68 "Hg10 mi
4:30 am73 °FClear.9 mph78%29.68 "Hg10 mi
4:00 am75 °FClear.12 mph74%29.65 "Hg10 mi
3:30 am75 °FClear.10 mph74%29.65 "Hg10 mi
3:00 am75 °FClear.10 mph74%29.65 "Hg10 mi
2:30 am75 °FClear.10 mph74%29.68 "Hg10 mi
2:00 am75 °FClear.10 mph74%29.68 "Hg10 mi
1:30 am75 °FClear.12 mph74%29.68 "Hg10 mi
1:00 am75 °FClear.10 mph74%29.68 "Hg10 mi
12:30 am75 °FClear.12 mph74%29.68 "Hg10 mi
12:00 am75 °FClear.10 mph78%29.68 "Hg10 mi
11:30 pm
Wed, Jul 17
75 °FClear.10 mph78%29.71 "Hg10 mi
11:00 pm75 °FPassing clouds.9 mph74%29.71 "HgN/A
10:30 pm75 °FPassing clouds.10 mph74%29.71 "HgN/A
10:00 pm75 °FPassing clouds.13 mph78%29.71 "HgN/A
9:30 pm75 °FClear.13 mph78%29.71 "Hg10 mi
9:00 pm75 °FClear.14 mph78%29.68 "Hg10 mi
8:30 pm75 °FClear.15 mph78%29.68 "Hg10 mi
8:00 pm75 °FSunny.17 mph78%29.68 "Hg10 mi
7:30 pm77 °FSunny.18 mph74%29.68 "Hg10 mi
7:00 pm77 °FSunny.20 mph74%29.68 "Hg10 mi
6:30 pm79 °FSunny.21 mph70%29.68 "Hg10 mi
6:00 pm79 °FSunny.23 mph70%29.68 "Hg10 mi
5:30 pm81 °FSunny.24 mph66%29.68 "Hg10 mi
5:00 pm81 °FSunny.23 mph66%29.68 "Hg10 mi
4:30 pm82 °FSunny.25 mph62%29.68 "Hg10 mi
4:00 pm82 °FSunny.26 mph62%29.68 "Hg10 mi
3:30 pm84 °FSunny.25 mph58%29.68 "Hg10 mi
3:00 pm84 °FSunny.25 mph51%29.68 "Hg10 mi
Weather by CustomWeather, © 2019

See weather overview